{"data":{"norad_id":52830,"intl_designator":"2022-062A","name":"STARLINK-4091","alt_names":[],"object_type":"PAYLOAD","status":"ACTIVE","operator":null,"country":"US","launch_date":"2022-06-17","launch_site_code":"AFETR","launch_vehicle":null,"mission":null,"orbit_class":"UNKNOWN","rcs_meters":null,"size_class":null,"mass_kg":null,"dimensions":null,"purposes":["comms"],"wikipedia_slug":null,"has_3d_model":false,"image_url":null,"decayed_at":null,"tle_current":{"epoch":"2026-05-25T03:47:35.774016Z","epoch_age_seconds":75545,"freshness":"FRESH","line1":"1 52830U 22062A   26145.15805294  .00002814  00000+0  19491-3 0  9993","line2":"2 52830  53.2138  51.0323 0001256  90.9901 269.1235 15.08821414217325","mean_motion":15.08821414,"eccentricity":0.0001256,"inclination_deg":53.2138,"raan_deg":51.0323,"arg_perigee_deg":90.9901,"mean_anomaly_deg":269.1235,"bstar":0.00019491,"rev_number":21732,"period_min":95.438730298933,"perigee_km":538.93130660157,"apogee_km":540.66909242608,"semimajor_km":6917.9371995138,"source":"CELESTRAK","updated_at":"2026-05-25T13:38:17.240097Z"}}}